Temperature
11 11 11 10 10 10 9 9 8 8 7 7 6 6 6 6 6 6 5 5 5 5 5 4 4 4 4 3 2 2 2 1 1 2 1 1 1 1 1 1 1 1 2
10 10 10 9 9 8 8 8 7 7 6 6 6 6 6 6 5 5 5 5 4 4 4 4 4 3 3 2 2 1 1 1 1 1 1 1 1 1 1 1 1 1 1
10 10 9 8 8 7 7 7 6 6 6 6 6 5 5 5 5 4 4 4 3 3 3 3 3 2 2 1 1 1 1 1 1 0 0 0 0 0 0 1 1 1 1
9 8 8 7 7 6 6 6 6 5 5 5 5 5 5 4 4 3 3 3 3 2 2 2 2 1 1 1 1 1 0 0 0 -0 -0 -0 -0 -0 -0 -0 0 1 1
8 7 7 6 6 6 6 5 5 5 5 5 4 4 4 3 3 3 2 2 2 1 1 1 1 1 1 1 0 0 -0 -0 -0 -0 -1 -1 -1 -1 -1 -1 -1 -0 1
7 6 6 6 6 5 5 5 4 4 4 4 4 3 3 2 2 2 1 1 1 1 1 1 1 1 0 0 -0 -0 -0 -1 -1 -1 -1 -1 -1 -1 -1 -1 -1 -1 -0
6 6 5 5 5 4 4 4 4 4 4 3 3 2 2 2 1 1 0 0 0 0 0 0 0 0 -0 -0 -1 -1 -1 -1 -1 -1 -1 -1 -1 -1 -1 -1 -0 -0 -0
5 5 5 4 4 4 4 4 4 3 3 2 2 1 1 1 0 0 -0 -0 0 0 0 -0 -0 -0 -1 -1 -1 -1 -1 -1 -1 -1 -1 -1 -1 -1 -0 -0 -0 -0 0
4 4 4 4 4 4 4 3 3 2 2 1 1 1 0 0 -0 -0 -1 -0 -0 0 0 -0 -0 -1 -1 -1 -1 -1 -1 -1 -0 -0 -0 -0 -0 -0 0 0 0 0 0
4 4 4 4 4 3 3 2 2 2 1 1 1 0 -0 -1 -1 -1 -1 -1 -0 0 0 -0 -1 -1 -1 -1 -1 -1 -1 -1 -0 0 0 0 0 0 0 0 0 0 0
4 4 4 4 3 3 2 2 1 1 1 0 0 -0 -1 -1 -1 -1 -1 -1 -1 -0 -1 -1 -1 -1 -1 -1 -1 -1 -0 -0 0 0 0 0 0 0 -0 -0 -1 -1 -1
4 4 4 3 3 2 2 1 1 1 0 0 -0 -0 -1 -1 -1 -1 -1 -1 -1 -1 -1 -1 -1 -1 -1 -1 -0 -0 0 0 0 0 -0 -0 -0 -1 -1 -1 -1 -1 -1
4 4 4 3 2 2 1 1 1 0 0 -0 -0 -0 -1 -1 -1 -1 -1 -1 -1 -1 -1 -1 -1 -1 -1 -1 -0 -0 0 0 -0 -0 -0 -0 -1 -1 -1 -1 -1 -1 -1
4 4 3 3 2 1 1 1 1 0 -0 -0 -1 -1 -1 -2 -2 -1 -1 -1 -1 -1 -1 -1 -1 -1 -1 -0 -0 -0 0 0 0 0 -0 -0 -1 -1 -1 -1 -1 -1 -1
4 4 3 2 2 1 1 1 0 0 -0 -1 -1 -1 -2 -2 -2 -2 -1 -1 -1 -1 -1 -1 -1 -1 -0 -0 -0 -0 0 0 0 0 -0 -1 -1 -1 -1 -1 -1 -1 -1
4 3 3 2 2 2 1 1 0 -0 -1 -1 -2 -2 -2 -2 -2 -2 -1 -1 -1 -1 -1 -1 -1 -1 -1 -0 -0 0 0 0 0 0 -0 -1 -1 -1 -1 -1 -1 -1 -1
3 3 3 3 2 2 1 1 0 -0 -1 -1 -2 -2 -2 -2 -2 -1 -1 -2 -1 -1 -1 -1 -1 -1 -1 -0 -0 0 0 0 0 -0 -0 -1 -1 -1 -1 -1 -1 -1 -1
3 3 3 3 2 2 2 1 1 0 -1 -1 -1 -2 -2 -2 -2 -2 -1 -1 -1 -1 -1 -1 -1 -1 -1 -0 0 0 1 1 0 0 -0 -1 -1 -1 -1 -1 -1 -1 -1
4 3 3 3 3 2 2 1 1 0 -0 -1 -1 -1 -2 -2 -2 -2 -1 -1 -2 -2 -1 -1 -1 -1 -1 -0 0 0 1 1 1 0 0 0 -0 -0 -1 -1 -1 -1 -1
4 3 3 3 3 2 2 1 1 0 -0 -1 -1 -1 -1 -1 -2 -2 -2 -2 -2 -1 -1 -1 -1 -1 -0 -0 0 0 1 1 1 1 1 1 1 0 0 -0 -0 -1 -1
4 3 3 3 3 2 2 1 1 0 -0 -1 -1 -1 -1 -1 -1 -2 -1 -1 -1 -1 -1 -1 -1 -0 -0 0 0 0 1 1 1 2 2 2 2 1 1 1 1 0 -1
4 3 3 3 2 2 2 1 0 -0 -1 -1 -1 -1 -1 -1 -1 -1 -1 -1 -1 -1 -1 -1 -0 -0 -0 0 0 1 1 1 2 2 2 3 3 3 2 2 2 1 0
3 3 3 2 2 2 1 1 0 -0 -1 -1 -1 -1 -1 -1 -1 -1 -1 -1 -1 -1 -1 -0 -0 -0 -0 0 1 1 1 2 2 2 3 3 3 3 3 3 2 2 1
3 3 2 2 2 1 1 0 -0 -0 -1 -1 -1 -1 -2 -1 -1 -1 -1 -1 -1 -1 -0 -0 0 0 0 0 1 1 2 2 3 3 3 3 4 4 3 3 3 3 2
3 3 2 2 1 1 0 0 -0 -1 -1 -1 -1 -1 -1 -1 -1 -1 -1 -1 -1 -0 -0 0 0 1 1 1 1 2 2 2 3 3 4 4 4 4 4 4 4 3 3
3 2 2 2 1 1 0 -0 -0 -1 -1 -1 -1 -1 -1 -1 -1 -1 -1 -0 -0 -0 0 0 1 1 1 1 2 2 2 3 3 4 4 4 5 5 4 4 4 4 4
Wind_Speed
10 10 10 10 9 9 9 8 7 5 4 3 2 1 1 2 3 5 5 5 5 5 5 5 5 5 4 4 4 4 4 4 9 8 5 6 8 10 12 15 17 16 18
10 9 9 8 8 8 8 7 6 5 4 3 3 4 6 7 7 7 6 5 5 5 6 6 7 6 6 6 5 6 6 6 6 12 8 6 8 9 10 10 11 14 14
9 9 8 8 8 8 7 6 6 6 7 7 7 8 7 7 6 5 4 4 4 5 6 7 8 7 8 7 7 7 7 8 7 9 12 7 6 7 8 9 9 7 11
8 8 7 7 7 8 8 8 8 9 8 7 6 6 6 5 4 3 3 4 5 7 7 7 8 8 9 8 8 8 8 9 9 11 12 10 8 7 6 6 7 6 7
9 9 8 8 9 9 9 9 8 7 6 5 5 5 4 3 3 3 4 5 7 8 9 8 8 13 14 11 10 9 10 10 11 11 11 10 8 7 7 6 8 8 8
11 10 10 9 9 8 7 6 6 6 6 6 6 4 2 1 2 5 6 6 8 8 9 9 10 11 14 18 20 20 19 15 13 13 12 13 12 9 8 8 8 9 7
10 9 8 7 7 6 6 6 6 5 5 5 4 3 2 0 2 6 10 8 8 8 9 9 10 12 14 11 15 19 19 23 22 17 15 14 12 10 10 11 10 11 11
7 5 4 4 5 6 6 6 4 3 3 2 3 3 2 2 4 7 11 8 8 8 9 9 10 12 12 12 13 14 14 14 17 13 11 13 12 11 12 13 12 11 10
4 2 3 4 6 6 5 4 2 3 3 3 4 5 3 1 1 6 9 6 7 9 10 10 12 12 14 16 14 13 14 13 15 14 14 13 15 16 13 8 7 8 7
3 3 4 6 7 6 4 3 3 4 4 5 5 5 3 2 5 8 10 5 7 9 10 10 13 13 16 18 12 11 12 12 12 12 10 9 7 6 6 4 4 5 4
4 7 8 7 6 5 4 4 5 5 5 5 5 5 4 5 7 10 12 7 8 9 9 9 9 15 18 17 14 10 12 13 9 8 7 6 4 3 3 3 4 3 3
7 8 7 6 6 6 6 5 5 5 4 4 4 5 5 6 7 11 14 14 12 8 8 9 10 17 18 17 12 13 15 11 6 5 4 5 5 4 3 4 5 4 4
8 8 7 7 6 5 5 5 4 3 3 3 4 5 6 6 7 12 14 15 16 9 8 14 17 17 15 11 12 14 10 7 5 5 4 4 4 4 4 4 5 5 4
8 7 6 5 4 3 4 4 3 2 2 3 4 5 6 6 6 8 9 9 12 10 9 12 15 14 12 11 10 8 6 6 5 5 5 3 3 4 5 5 4 5 4
8 6 5 4 4 3 3 3 4 2 3 1 2 3 5 6 8 13 9 7 7 8 9 5 5 8 8 8 8 8 7 7 7 6 4 4 4 5 5 5 5 5 5
7 6 4 3 3 3 3 1 1 3 4 3 3 4 5 7 11 12 13 13 13 14 7 5 7 8 8 8 8 8 7 8 7 6 5 5 6 6 6 6 5 6 7
6 5 4 3 3 3 3 4 2 2 4 6 7 7 7 9 10 12 14 13 11 10 5 6 6 7 7 8 8 7 7 7 6 5 5 5 5 6 6 7 7 7 7
4 4 4 3 3 3 4 4 3 3 2 3 5 6 9 10 10 11 12 9 7 7 6 7 7 7 7 8 8 7 8 7 5 4 4 5 6 6 7 7 7 8 8
2 1 2 3 3 3 3 3 3 3 2 1 3 4 8 9 8 9 9 5 5 6 7 7 7 7 7 7 8 8 8 7 6 4 4 3 3 4 5 5 5 9 8
1 1 2 3 2 2 2 3 2 2 1 1 2 3 5 5 5 6 5 5 5 6 7 7 7 7 7 7 8 8 8 7 8 6 6 4 2 0 1 2 3 4 5
3 2 2 3 2 3 3 4 3 2 2 1 1 3 4 4 5 6 5 5 5 6 6 7 7 7 7 7 7 8 9 8 7 8 8 6 3 1 2 2 2 2 3
2 2 3 3 3 4 4 4 3 3 3 2 2 3 5 4 5 5 5 5 5 5 5 5 6 6 6 6 7 7 8 8 8 9 8 7 5 3 2 1 2 3 5
5 6 5 4 4 5 5 3 2 3 3 2 2 2 3 4 5 5 6 6 6 5 7 7 5 5 8 9 8 6 6 7 7 7 7 7 5 5 5 5 6 7 8
5 5 5 4 4 4 4 3 2 2 2 1 1 3 3 3 4 6 6 6 5 7 10 9 8 9 11 12 12 12 11 12 11 8 7 6 6 5 5 5 6 8 8
4 4 5 4 4 4 3 3 3 3 3 3 4 4 5 5 5 6 6 5 7 7 10 12 12 12 14 14 15 15 18 18 16 14 9 5 6 6 5 6 7 8 7
5 5 4 4 4 4 4 4 4 4 5 5 5 5 6 6 6 6 7 6 6 7 10 13 15 16 16 16 17 17 17 17 18 17 13 7 7 7 7 7 9 7 7
Wind_Direction
95 95 95 94 97 99 103 109 115 117 118 120 133 166 253 348 35 66 68 59 52 21 0 345 319 301 288 284 279 271 264 259 285 289 261 272 277 279 286 286 286 283 282
99 96 93 90 90 93 95 95 97 94 75 58 43 46 62 74 77 77 64 45 26 356 334 323 308 301 286 276 271 266 264 256 263 289 291 279 273 275 276 278 287 289 285
104 99 93 90 92 96 94 88 77 65 54 50 61 81 88 85 78 72 62 29 353 327 313 305 297 292 288 283 278 273 271 277 262 279 290 280 274 277 280 283 283 284 291
103 96 92 92 93 93 83 71 65 65 66 68 83 101 103 98 84 62 33 356 333 319 309 302 299 295 288 287 291 282 284 282 277 279 285 283 273 268 264 273 287 282 286
98 91 87 85 82 78 73 71 73 75 78 77 83 101 112 99 75 39 357 343 328 318 310 301 301 309 312 312 310 303 300 295 291 286 287 286 278 273 269 270 282 284 281
88 85 82 79 79 77 83 91 90 82 68 61 60 70 88 87 52 16 355 328 316 310 306 303 305 305 312 315 312 308 303 299 298 292 289 285 281 272 271 273 274 280 283
80 80 79 83 90 96 100 94 88 80 69 65 55 55 61 11 43 12 352 334 312 305 304 306 312 311 312 307 308 310 303 296 291 288 286 285 284 277 274 276 271 270 269
77 75 81 100 105 107 102 94 85 79 77 69 38 26 37 61 57 10 344 333 311 305 305 303 302 305 307 308 310 303 298 294 288 287 279 278 277 274 271 274 276 274 269
90 98 116 119 114 108 100 91 77 74 56 43 34 29 45 57 359 341 343 320 310 309 308 309 310 307 306 310 311 303 302 301 301 291 281 279 277 277 279 279 274 274 276
127 105 100 108 108 107 102 82 63 72 64 51 37 27 36 273 285 331 349 326 321 321 316 312 312 308 311 316 315 307 305 309 312 312 307 301 298 304 321 321 316 305 297
115 100 99 106 108 103 85 75 74 75 63 45 25 5 354 330 321 338 345 338 324 317 314 315 313 314 319 321 320 311 308 313 311 315 321 329 334 344 2 350 331 315 311
118 110 105 99 94 92 88 78 75 77 60 28 7 353 342 336 335 335 334 331 327 315 311 312 313 317 323 324 326 325 327 330 329 334 345 352 349 348 341 326 320 318 320
120 116 110 97 89 102 109 101 77 64 54 16 3 348 333 329 330 332 330 328 331 327 311 313 318 322 328 328 327 332 339 343 341 340 343 348 344 343 340 330 332 337 345
129 130 125 118 116 116 122 122 111 91 58 19 357 338 325 324 329 334 329 325 328 330 323 318 321 326 334 331 334 340 342 335 330 333 344 351 342 344 351 348 347 351 357
134 142 143 150 156 155 146 154 149 163 165 164 298 302 315 321 317 320 320 319 324 322 322 320 335 340 342 344 346 345 343 345 348 353 2 5 358 2 8 3 8 12 22
132 148 159 168 171 167 155 112 159 181 186 203 257 294 292 296 314 329 340 343 343 341 345 343 342 342 341 343 345 345 343 352 360 7 12 17 21 23 21 19 21 29 35
139 161 176 180 176 175 173 178 212 266 253 260 273 303 326 335 343 347 348 342 342 350 359 346 343 342 343 344 346 347 351 356 6 15 17 19 21 23 28 32 33 39 43
138 159 171 184 187 181 178 181 183 190 250 290 294 307 340 348 347 351 349 349 355 359 352 345 343 344 345 347 349 350 353 0 10 11 4 13 26 33 39 40 41 42 46
144 141 151 166 176 174 166 159 162 176 193 307 345 340 338 334 334 349 356 2 349 346 344 343 342 345 347 349 351 353 358 3 3 354 341 349 21 39 47 44 43 39 45
265 258 150 153 145 143 137 136 146 152 131 65 7 334 328 339 349 348 350 345 345 342 342 342 345 348 350 350 352 355 358 360 356 347 337 337 336 337 59 71 63 55 54
246 264 151 116 99 112 125 132 138 135 131 131 280 302 333 342 344 344 344 342 339 337 339 341 345 349 350 349 351 354 357 355 350 346 346 347 345 247 236 210 172 111 77
128 113 101 97 84 95 117 129 126 119 131 155 256 309 336 349 347 347 344 340 334 328 326 330 335 338 341 345 346 348 351 350 347 344 342 344 356 5 360 30 86 87 84
90 90 91 90 85 91 102 116 106 106 135 187 250 308 337 343 346 349 350 347 341 337 341 343 341 343 347 346 344 340 338 332 322 317 325 334 354 16 32 51 76 90 91
98 102 107 104 92 88 95 101 94 89 111 151 326 349 349 343 345 352 355 355 353 358 1 1 358 353 353 352 345 342 338 331 324 319 318 338 352 1 24 52 80 102 106
89 97 110 114 106 97 86 83 79 68 65 55 41 36 30 23 14 9 5 359 5 9 9 7 4 360 355 351 347 343 344 351 357 356 351 348 3 12 39 66 95 110 117
68 77 93 103 101 94 83 77 75 72 66 62 57 48 37 29 22 14 9 8 8 8 9 6 2 2 2 358 352 354 359 3 6 11 16 18 31 43 63 77 95 102 110
Height
1511 1513 1515 1517 1519 1522 1523 1525 1527 1528 1529 1530 1530 1530 1530 1529 1527 1526 1524 1521 1519 1517 1514 1511 1508 1505 1501 1498 1495 1492 1488 1484 1477 1471 1470 1467 1465 1462 1459 1457 1455 1452 1450
1513 1515 1517 1518 1520 1522 1524 1525 1527 1527 1528 1528 1528 1528 1527 1525 1524 1523 1521 1518 1515 1512 1509 1506 1502 1498 1495 1492 1488 1485 1482 1479 1474 1466 1462 1460 1457 1455 1451 1449 1447 1444 1442
1514 1516 1517 1518 1520 1522 1524 1525 1526 1527 1527 1526 1526 1525 1524 1523 1521 1520 1518 1515 1511 1508 1504 1500 1496 1493 1489 1486 1483 1479 1476 1472 1468 1462 1455 1452 1449 1448 1444 1442 1440 1438 1436
1514 1516 1517 1519 1521 1522 1524 1525 1525 1525 1525 1525 1524 1524 1523 1521 1518 1516 1513 1510 1507 1503 1500 1496 1492 1488 1485 1481 1477 1473 1469 1465 1461 1455 1449 1445 1442 1440 1438 1435 1432 1431 1429
1513 1516 1518 1520 1521 1522 1523 1524 1524 1525 1525 1525 1523 1521 1520 1518 1515 1512 1509 1507 1503 1499 1496 1492 1488 1484 1480 1476 1472 1467 1463 1458 1453 1448 1442 1438 1435 1433 1431 1429 1426 1423 1421
1514 1516 1519 1520 1522 1523 1523 1524 1524 1525 1524 1523 1521 1519 1517 1514 1512 1509 1506 1503 1499 1495 1491 1487 1483 1479 1475 1470 1466 1462 1457 1452 1446 1441 1435 1431 1428 1427 1425 1422 1420 1417 1414
1516 1518 1520 1521 1522 1523 1524 1525 1524 1523 1522 1520 1518 1516 1514 1511 1509 1506 1503 1499 1495 1491 1486 1482 1477 1473 1469 1464 1459 1454 1449 1444 1440 1435 1429 1425 1422 1420 1419 1416 1414 1412 1409
1519 1520 1522 1523 1524 1524 1525 1524 1523 1522 1520 1518 1516 1513 1511 1508 1506 1503 1500 1496 1491 1487 1483 1478 1473 1468 1464 1459 1453 1447 1442 1437 1433 1428 1424 1420 1417 1415 1413 1411 1408 1405 1402
1521 1522 1524 1524 1525 1525 1524 1523 1522 1520 1518 1516 1514 1511 1509 1506 1504 1500 1496 1491 1487 1483 1479 1475 1470 1465 1460 1454 1448 1442 1437 1432 1428 1424 1420 1416 1413 1411 1408 1406 1403 1401 1397
1523 1524 1525 1525 1525 1525 1524 1522 1521 1519 1517 1515 1513 1510 1507 1504 1502 1498 1493 1488 1484 1480 1476 1472 1467 1462 1456 1450 1445 1439 1434 1429 1425 1421 1417 1414 1411 1408 1406 1403 1400 1398 1395
1525 1525 1526 1526 1525 1524 1523 1522 1520 1519 1517 1514 1512 1509 1506 1503 1500 1496 1491 1487 1482 1478 1474 1469 1464 1459 1453 1448 1443 1438 1433 1429 1424 1421 1417 1414 1411 1407 1404 1401 1398 1396 1393
1526 1526 1526 1526 1525 1524 1523 1521 1520 1518 1516 1513 1510 1507 1505 1501 1498 1494 1490 1486 1482 1477 1473 1468 1462 1457 1452 1447 1442 1438 1434 1429 1426 1422 1418 1414 1410 1407 1403 1400 1397 1394 1391
1527 1527 1527 1526 1525 1524 1523 1521 1520 1517 1515 1512 1509 1506 1503 1500 1496 1493 1489 1485 1481 1477 1472 1467 1462 1457 1452 1447 1443 1438 1434 1431 1427 1423 1419 1415 1411 1407 1404 1401 1398 1395 1392
1527 1527 1527 1526 1525 1524 1523 1521 1519 1517 1514 1512 1509 1505 1502 1499 1495 1491 1487 1483 1480 1476 1472 1467 1463 1458 1453 1448 1444 1440 1436 1432 1428 1424 1420 1416 1413 1410 1406 1403 1401 1398 1395
1527 1527 1527 1526 1525 1524 1522 1521 1519 1517 1514 1512 1508 1505 1501 1497 1494 1490 1486 1482 1479 1475 1471 1467 1463 1458 1454 1449 1446 1442 1438 1434 1430 1426 1422 1419 1415 1412 1409 1406 1404 1402 1399
1527 1527 1527 1526 1525 1524 1522 1521 1518 1516 1514 1511 1508 1505 1501 1498 1494 1490 1486 1482 1479 1475 1472 1468 1464 1460 1456 1452 1448 1445 1441 1437 1434 1430 1426 1422 1418 1415 1412 1410 1408 1406 1403
1528 1527 1527 1526 1525 1524 1522 1520 1518 1516 1513 1511 1508 1504 1501 1497 1494 1490 1486 1482 1479 1476 1472 1469 1465 1462 1458 1455 1451 1448 1444 1441 1438 1434 1430 1427 1423 1419 1417 1414 1412 1410 1408
1528 1528 1527 1526 1524 1523 1521 1519 1518 1515 1513 1511 1508 1504 1500 1497 1493 1490 1486 1483 1480 1477 1474 1470 1467 1464 1460 1457 1454 1451 1448 1445 1442 1439 1436 1433 1429 1426 1423 1420 1418 1415 1413
1529 1527 1526 1525 1524 1522 1521 1519 1517 1515 1513 1511 1508 1504 1500 1497 1494 1490 1487 1484 1481 1478 1475 1472 1469 1466 1463 1460 1458 1454 1451 1449 1447 1444 1441 1438 1435 1433 1430 1427 1425 1423 1420
1529 1528 1526 1525 1523 1522 1520 1519 1517 1515 1513 1511 1508 1505 1501 1498 1494 1491 1488 1485 1482 1480 1477 1474 1471 1468 1466 1463 1461 1458 1455 1453 1451 1449 1446 1443 1441 1438 1436 1434 1431 1429 1427
1529 1528 1526 1525 1523 1522 1520 1519 1517 1515 1514 1512 1509 1506 1503 1499 1496 1492 1489 1487 1484 1482 1479 1476 1474 1471 1469 1467 1464 1462 1460 1458 1456 1453 1450 1448 1446 1443 1441 1439 1437 1435 1433
1528 1527 1526 1525 1523 1522 1520 1519 1517 1516 1514 1512 1510 1507 1504 1501 1498 1495 1492 1489 1487 1484 1482 1479 1477 1474 1472 1470 1468 1466 1464 1462 1460 1457 1455 1453 1451 1449 1446 1445 1443 1441 1439
1529 1528 1527 1525 1524 1522 1521 1519 1518 1517 1515 1513 1511 1509 1506 1503 1500 1497 1494 1492 1490 1487 1485 1482 1480 1477 1475 1473 1472 1470 1468 1466 1464 1462 1460 1458 1457 1455 1453 1451 1449 1448 1446
1530 1528 1527 1526 1525 1523 1521 1520 1519 1518 1516 1515 1513 1511 1508 1506 1503 1500 1497 1495 1493 1491 1488 1486 1483 1480 1478 1477 1475 1474 1473 1471 1469 1467 1465 1464 1462 1460 1458 1456 1455 1455 1454
1531 1529 1528 1527 1525 1524 1523 1521 1520 1519 1518 1516 1514 1512 1510 1508 1505 1503 1501 1499 1497 1494 1492 1489 1487 1484 1482 1480 1479 1478 1477 1476 1474 1472 1470 1468 1466 1464 1462 1461 1461 1461 1462
1532 1530 1529 1528 1526 1525 1524 1522 1521 1520 1519 1517 1515 1513 1512 1510 1508 1506 1504 1502 1500 1498 1496 1493 1491 1488 1486 1484 1483 1483 1482 1480 1479 1477 1475 1473 1471 1470 1468 1468 1468 1468 1468